[[{"header":{"parameterUnit":"m.s-1","parameterCategory":1,"la1":30.2992,"la2":30.254,"lo1":-89.0895,"lo2":-89.0443,"dy":0.0025,"dx":0.0025,"nx":19,"ny":19,"refTime":"2026-05-16T09:00:00:Z","depth":0,"parameterNumber":2,"parameterNumberName":"U-component_of_WINDS"},"data":[0,0,0,-2.9039,-2.9041,-2.9151,-2.9152,-2.9287,-2.9288,0,0,0,0,0,0,0,0,0,0,0,-2.9002,-2.9003,-2.9039,-2.9042,-2.9151,-2.9152,-2.9287,-2.9288,0,0,0,0,0,0,0,0,0,0,0,-2.9002,-2.9003,-2.9004,-2.9042,-2.9151,-2.9152,-2.9286,-2.9206,0,0,0,0,0,0,0,0,0,0,-2.91,-2.9061,-2.9002,-2.9004,-2.9043,-2.9151,-2.9152,-2.9202,-2.9211,-2.9234,0,-2.9253,0,-2.9272,-2.9296,-2.9297,0,0,0,-2.9045,-2.9053,-2.9087,-2.9004,-2.9044,-2.9151,-2.9103,-2.9207,-2.9217,-2.9246,-2.9255,-2.926,-2.9275,-2.9297,-2.9298,-2.9419,-2.942,0,0,-2.9039,-2.9019,-2.908,-2.9093,-2.9075,-2.9099,-2.9106,-2.9213,-2.9222,-2.9255,-2.9263,-2.9277,-2.9298,-2.9299,-2.9419,-2.942,0,0,0,-2.9019,-2.9015,-2.9046,-2.9088,-2.9108,-2.9102,-2.911,-2.9217,-2.9229,-2.9265,-2.9279,-2.9299,-2.93,-2.9419,-2.9419,-2.9418,0,0,0,-2.9016,-2.9003,-2.9044,-2.9032,-2.9106,-2.9164,-2.9112,-2.9222,-2.9234,-2.9278,-2.9299,-2.9302,-2.9418,-2.9419,-2.9417,-2.942,0,0,0,-2.8997,-2.9001,-2.9015,-2.9031,-2.9078,-2.9162,-2.918,-2.9225,-2.9242,-2.9297,-2.9302,-2.9418,-2.9419,-2.9416,-2.9419,-2.9445,0,0,0,-2.897,-2.9013,-2.9015,-2.9069,-2.9077,-2.9161,-2.918,-2.9244,-2.9291,-2.93,-2.9418,-2.9419,-2.9416,-2.9418,-2.9444,-2.9462,-2.9468,0,0,-2.9013,-2.9017,-2.9051,-2.9056,-2.9134,-2.9146,-2.9225,-2.9287,-2.9312,-2.9382,-2.9386,-2.9417,-2.9419,-2.9445,-2.9513,-2.9518,0,0,0,-2.9058,-2.9081,-2.9106,-2.915,-2.9198,-2.924,-2.9293,-2.9316,-2.9377,-2.9343,-2.9436,-2.9437,-2.9453,-2.9463,-2.9467,-2.9482,-2.9423,-2.9423,-2.9423,-2.9088,-2.9117,-2.9174,-2.9216,-2.9258,-2.9313,-2.935,-2.9391,-2.9408,-2.9429,-2.9449,-2.9487,-2.9498,-2.9501,-2.9516,-2.9463,-2.9463,-2.9463,-2.9463,-2.9152,-2.9189,-2.9212,-2.9275,-2.9306,-2.936,-2.9415,-2.9426,-2.9481,-2.9474,-2.949,-2.9478,-2.9505,-2.952,-2.9464,-2.9464,-2.9464,-2.9464,-2.9464,-2.9173,-2.9196,-2.9224,-2.929,-2.9339,-2.9382,-2.9434,-2.9461,-2.9487,-2.9503,-2.9527,-2.9527,-2.953,-2.9513,-2.9514,-2.9514,-2.9514,-2.9514,-2.9514,-2.9182,-2.9215,-2.9254,-2.9311,-2.9343,-2.9389,-2.9446,-2.9479,-2.9523,-2.9538,-2.9539,-2.9553,-2.9503,-2.9488,-2.9516,-2.9516,-2.9515,-2.9515,-2.9515,-2.9233,-2.9226,-2.9287,-2.9319,-2.9389,-2.9436,-2.9471,-2.9536,-2.9568,-2.9593,-2.9605,-2.9564,-2.9571,-2.9568,-2.9556,-2.9599,-2.9599,-2.9599,-2.9599,-2.9248,-2.9255,-2.9324,-2.9374,-2.9427,-2.9465,-2.9535,-2.9581,-2.9628,-2.965,-2.9648,-2.9636,-2.9632,-2.9641,-2.9636,-2.9625,-2.9686,-2.9686,-2.9686,-2.928,-2.9294,-2.9346,-2.9392,-2.9449,-2.9498,-2.9564,-2.9622,-2.9674,-2.969,-2.9667,-2.9664,-2.9644,-2.9636,-2.9647,-2.964,-2.962,0,0]},{"header":{"parameterUnit":"m.s-1","parameterCategory":1,"la1":30.2992,"la2":30.254,"lo1":-89.0895,"lo2":-89.0443,"dy":0.0025,"dx":0.0025,"nx":19,"ny":19,"refTime":"2026-05-16T09:00:00:Z","depth":0,"parameterNumber":3,"parameterNumberName":"V-component_of_WINDS"},"data":[0,0,0,5.0139,5.014,5.0178,5.0178,5.0228,5.0229,0,0,0,0,0,0,0,0,0,0,0,5.0129,5.0129,5.0139,5.014,5.0178,5.0178,5.0228,5.0229,0,0,0,0,0,0,0,0,0,0,0,5.0129,5.0129,5.013,5.014,5.0178,5.0178,5.0228,5.0199,0,0,0,0,0,0,0,0,0,0,5.0162,5.0153,5.0129,5.013,5.014,5.0178,5.0178,5.0197,5.0201,5.0212,0,5.0223,0,5.0227,5.0232,5.0232,0,0,0,5.0139,5.0151,5.016,5.013,5.0141,5.0178,5.0161,5.0199,5.0203,5.0216,5.0223,5.0225,5.0227,5.0233,5.0233,5.0304,5.0304,0,0,5.0137,5.0136,5.0158,5.0163,5.0157,5.0159,5.0162,5.0201,5.0209,5.0223,5.0226,5.0228,5.0233,5.0233,5.0304,5.0304,0,0,0,5.0132,5.0135,5.0143,5.0161,5.0167,5.016,5.0163,5.0207,5.021,5.0227,5.0229,5.0233,5.0234,5.0303,5.0304,5.0323,0,0,0,5.013,5.0132,5.0142,5.0142,5.0167,5.0188,5.0168,5.0207,5.0211,5.0229,5.0233,5.0234,5.0303,5.0304,5.0322,5.0332,0,0,0,5.0126,5.0131,5.0137,5.0142,5.0159,5.0187,5.0192,5.0208,5.0213,5.0233,5.0235,5.0303,5.0304,5.032,5.033,5.0351,0,0,0,5.0121,5.0153,5.0138,5.0174,5.0158,5.0199,5.0192,5.0222,5.0241,5.0234,5.0303,5.0304,5.032,5.0329,5.035,5.0369,5.0377,0,0,5.016,5.0157,5.0179,5.0166,5.021,5.0193,5.0239,5.0257,5.0258,5.0289,5.029,5.0322,5.033,5.0351,5.0422,5.0429,0,0,0,5.0191,5.0206,5.0218,5.0237,5.0252,5.0266,5.0277,5.0283,5.031,5.0274,5.0336,5.034,5.0353,5.0362,5.0367,5.0378,5.0308,5.0308,5.0308,5.0245,5.0247,5.0283,5.029,5.0309,5.0321,5.0336,5.0347,5.0342,5.0357,5.0366,5.0409,5.042,5.0424,5.0435,5.0376,5.0376,5.0376,5.0376,5.0302,5.0325,5.032,5.0353,5.0356,5.0383,5.0397,5.0393,5.0419,5.0402,5.0413,5.0394,5.0431,5.0441,5.0378,5.0378,5.0377,5.0377,5.0377,5.0338,5.0349,5.0358,5.0387,5.0409,5.0415,5.0442,5.0442,5.0443,5.0454,5.0464,5.0464,5.0463,5.0459,5.0459,5.0459,5.0459,5.0459,5.0459,5.0371,5.038,5.0403,5.0423,5.0436,5.0454,5.0468,5.0481,5.0495,5.0494,5.0494,5.0488,5.0434,5.0421,5.0462,5.0461,5.0461,5.0461,5.0461,5.0428,5.0416,5.045,5.0464,5.0489,5.0512,5.0513,5.054,5.055,5.0564,5.0556,5.0516,5.0513,5.0508,5.0497,5.0556,5.0556,5.0556,5.0556,5.0458,5.0457,5.0493,5.0515,5.0537,5.0542,5.0582,5.0593,5.0603,5.061,5.0602,5.0587,5.0583,5.0582,5.0576,5.0565,5.064,5.064,5.064,5.0494,5.0495,5.0529,5.0539,5.056,5.0577,5.0614,5.0639,5.0648,5.0643,5.0616,5.0612,5.0588,5.0581,5.0575,5.0565,5.0546,0,0]}]]